Time,TemperatureF,DewpointF,PressureIn,WindDirection,WindDirectionDegrees,WindSpeedMPH,WindSpeedGustMPH,Humidity,HourlyPrecipIn,Conditions,Clouds,dailyrainin,SoftwareType,DateUTC
2016-07-29 00:11:00,68.0,68.0,-100.00,North,-9999,-999.9,-999.0,99,-99.99,,,-99.99,,2016-07-29 04:11:00,
2016-07-29 00:21:00,68.0,68.0,-100.00,North,-9999,-999.9,-999.0,99,-99.99,,,-99.99,,2016-07-29 04:21:00,
2016-07-29 00:32:00,68.0,68.0,-100.00,WNW,301,1.0,-999.0,99,-99.99,,,-99.99,,2016-07-29 04:32:00,
2016-07-29 01:14:00,68.0,68.0,-100.00,North,-9999,-999.9,-999.0,99,-99.99,,,-99.99,,2016-07-29 05:14:00,
2016-07-29 01:22:00,68.0,68.0,-100.00,WNW,301,1.0,-999.0,99,-99.99,,,-99.99,,2016-07-29 05:22:00,
2016-07-29 01:32:00,68.0,68.0,-100.00,North,-9999,0.0,-999.0,99,-99.99,,,-99.99,,2016-07-29 05:32:00,
2016-07-29 02:06:00,68.0,68.0,-100.00,North,-9999,-999.9,-999.0,99,-99.99,,,-99.99,,2016-07-29 06:06:00,
2016-07-29 02:21:00,68.0,68.0,-100.00,North,-9999,0.0,2.0,99,-99.99,,,-99.99,,2016-07-29 06:21:00,
2016-07-29 02:29:00,68.0,68.0,-100.00,North,-9999,0.0,2.0,99,-99.99,,,-99.99,,2016-07-29 06:29:00,
2016-07-29 02:58:00,68.0,68.0,-100.00,North,-9999,0.0,0.0,99,-99.99,,,-99.99,,2016-07-29 06:58:00,
2016-07-29 03:06:00,68.0,68.0,-100.00,North,-9999,0.0,0.0,99,-99.99,,,-99.99,,2016-07-29 07:06:00,
2016-07-29 03:15:00,68.0,68.0,-100.00,North,-9999,0.0,0.0,99,-99.99,,,-99.99,,2016-07-29 07:15:00,
2016-07-29 03:28:00,68.0,68.0,-100.00,North,-9999,0.0,0.0,99,-99.99,,,-99.99,,2016-07-29 07:28:00,
2016-07-29 03:32:00,68.0,68.0,-100.00,North,-9999,0.0,0.0,99,-99.99,,,-99.99,,2016-07-29 07:32:00,
2016-07-29 03:57:00,68.0,68.0,-100.00,North,-9999,0.0,0.0,99,-99.99,,,-99.99,,2016-07-29 07:57:00,
2016-07-29 04:04:00,68.0,68.0,-100.00,North,-9999,0.0,0.0,99,-99.99,,,-99.99,,2016-07-29 08:04:00,
2016-07-29 04:13:00,68.0,68.0,-100.00,North,-9999,0.0,0.0,99,-99.99,,,-99.99,,2016-07-29 08:13:00,
2016-07-29 04:23:00,68.0,68.0,-100.00,North,-9999,0.0,0.0,99,-99.99,,,-99.99,,2016-07-29 08:23:00,
2016-07-29 04:32:00,67.0,67.0,-100.00,North,-9999,0.0,-999.0,99,-99.99,,,-99.99,,2016-07-29 08:32:00,
2016-07-29 04:54:00,67.0,67.0,-100.00,North,-9999,0.0,0.0,99,-99.99,,,-99.99,,2016-07-29 08:54:00,
2016-07-29 05:04:00,67.0,67.0,-100.00,North,-9999,0.0,0.0,99,-99.99,,,-99.99,,2016-07-29 09:04:00,
2016-07-29 05:13:00,67.0,67.0,-100.00,North,-9999,0.0,0.0,99,-99.99,,,-99.99,,2016-07-29 09:13:00,
2016-07-29 05:24:00,67.0,67.0,-100.00,North,-9999,0.0,0.0,99,-99.99,,,-99.99,,2016-07-29 09:24:00,
2016-07-29 05:32:00,66.0,66.0,-100.00,SSW,192,-999.9,-999.0,99,-99.99,,,-99.99,,2016-07-29 09:32:00,
2016-07-29 06:11:00,66.0,66.0,-100.00,SSW,192,-999.9,-999.0,99,-99.99,,,-99.99,,2016-07-29 10:11:00,
2016-07-29 06:21:00,66.0,66.0,-100.00,SSW,192,1.0,-999.0,99,-99.99,,,-99.99,,2016-07-29 10:21:00,
2016-07-29 06:31:00,66.0,66.0,-100.00,SSW,192,1.0,-999.0,99,-99.99,,,-99.99,,2016-07-29 10:31:00,
2016-07-29 06:32:00,64.0,64.0,-100.00,SSE,147,1.0,-999.0,99,-99.99,,,-99.99,,2016-07-29 10:32:00,
2016-07-29 07:22:00,64.0,64.0,-100.00,SSE,147,1.0,-999.0,99,-99.99,,,-99.99,,2016-07-29 11:22:00,
2016-07-29 07:32:00,65.0,65.0,-100.00,North,-9999,0.0,-999.0,99,-99.99,,,-99.99,,2016-07-29 11:32:00,
2016-07-29 07:57:00,65.0,65.0,-100.00,North,-9999,0.0,0.0,99,-99.99,,,-99.99,,2016-07-29 11:57:00,
2016-07-29 08:17:00,65.0,65.0,-100.00,North,-9999,0.0,-999.0,99,-99.99,,,-99.99,,2016-07-29 12:17:00,
2016-07-29 08:26:00,65.0,65.0,-100.00,North,-9999,0.0,-999.0,99,-99.99,,,-99.99,,2016-07-29 12:26:00,
2016-07-29 08:32:00,66.0,66.0,-100.00,North,-9999,0.0,-999.0,99,-99.99,,,-99.99,,2016-07-29 12:32:00,
2016-07-29 08:59:00,66.0,66.0,-100.00,North,-9999,0.0,0.0,99,-99.99,,,-99.99,,2016-07-29 12:59:00,
2016-07-29 09:08:00,66.0,66.0,-100.00,North,-9999,0.0,0.0,99,-99.99,,,-99.99,,2016-07-29 13:08:00,
2016-07-29 09:17:00,66.0,66.0,-100.00,North,-9999,0.0,-999.0,99,-99.99,,,-99.99,,2016-07-29 13:17:00,
2016-07-29 09:25:00,66.0,66.0,-100.00,North,-9999,0.0,0.0,99,-99.99,,,-99.99,,2016-07-29 13:25:00,
2016-07-29 09:32:00,68.0,67.0,-100.00,North,-9999,0.0,0.0,98,-99.99,,,-99.99,,2016-07-29 13:32:00,
2016-07-29 09:58:00,68.0,67.0,-100.00,North,-9999,0.0,0.0,98,-99.99,,,-99.99,,2016-07-29 13:58:00,
2016-07-29 10:04:00,68.0,67.0,-100.00,North,-9999,0.0,0.0,98,-99.99,,,-99.99,,2016-07-29 14:04:00,
2016-07-29 10:15:00,68.0,67.0,-100.00,North,-9999,0.0,0.0,98,-99.99,,,-99.99,,2016-07-29 14:15:00,
2016-07-29 10:32:00,71.0,68.0,-100.00,North,-9999,0.0,-999.0,91,-99.99,,,-99.99,,2016-07-29 14:32:00,
2016-07-29 10:55:00,71.0,68.0,-100.00,North,-9999,0.0,0.0,91,-99.99,,,-99.99,,2016-07-29 14:55:00,
2016-07-29 11:04:00,71.0,68.0,-100.00,North,-9999,0.0,0.0,91,-99.99,,,-99.99,,2016-07-29 15:04:00,
2016-07-29 11:17:00,71.0,68.0,-100.00,North,-9999,0.0,0.0,91,-99.99,,,-99.99,,2016-07-29 15:17:00,
2016-07-29 11:24:00,71.0,68.0,-100.00,North,-9999,0.0,0.0,91,-99.99,,,-99.99,,2016-07-29 15:24:00,
2016-07-29 11:32:00,77.0,70.0,-100.00,North,-9999,-999.9,-999.0,79,-99.99,,,-99.99,,2016-07-29 15:32:00,
2016-07-29 12:21:00,77.0,70.0,-100.00,NNE,29,1.0,-999.0,79,-99.99,,,-99.99,,2016-07-29 16:21:00,
2016-07-29 12:31:00,77.0,70.0,-100.00,North,-9999,-999.9,-999.0,79,-99.99,,,-99.99,,2016-07-29 16:31:00,
2016-07-29 12:32:00,80.0,71.0,-100.00,North,-9999,-999.9,-999.0,75,-99.99,,,-99.99,,2016-07-29 16:32:00,
2016-07-29 13:12:00,80.0,71.0,-100.00,North,-9999,-999.9,-999.0,75,-99.99,,,-99.99,,2016-07-29 17:12:00,
2016-07-29 13:22:00,80.0,71.0,-100.00,ENE,59,-999.9,-999.0,75,-99.99,,,-99.99,,2016-07-29 17:22:00,
2016-07-29 13:32:00,78.0,67.0,-100.00,NW,318,1.0,-999.0,69,-99.99,,,-99.99,,2016-07-29 17:32:00,
2016-07-29 14:13:00,78.0,67.0,-100.00,NW,318,1.0,-999.0,69,-99.99,,,-99.99,,2016-07-29 18:13:00,
2016-07-29 14:22:00,78.0,67.0,-100.00,NW,318,1.0,-999.0,69,-99.99,,,-99.99,,2016-07-29 18:22:00,